Find Starlink 1482

NORAD ID: 45773 Int'l Des: 2020-038 Owner: SPXS Country: US Constellation: starlink operational
LEOCIRCULAR

Live-Position

3D-Globus wird geladen...

Über Starlink 1482

Beschreibung wird geladen...

Nächste Überflüge

Passes for default location (London). Set your location on the main map for personalized predictions.

Höhenverlauf

Loading altitude history...

Zweizeiliger Elementsatz

1 45773U 20038AV 26133.36005934 .00027156 00000-0 77815-3 0 9996
2 45773 53.1573 249.4031 0002545 292.8162 67.2573 15.35736800326763
Epoch: 13. Mai 2026 • Age: 10 hours

Aktueller Status

Höhe 472.4 km
Geschwindigkeit 7.63 km/s
Subsatellitenpunkt -43.89°S, 44.17°W
Startdatum 13. Juni 2020
Alter 5.9 years
Typ internet

Technische Details

Klassifizierung Payload
Masse 260.00 kg
Trockenmasse 248.00 kg
Gesamtmasse 260.00 kg
Länge 0.20 m
Durchmesser 2.80 m
Spannweite 9.00 m
Form Box + pan
Hersteller SPXS
Bus-Typ Starlink
Phasenstatus In Orbit
Besitzer/Staat SPXS/US

Most Searched